Location: Seattle
(47.6064°N, 122.3308°W)
Time: 05:01:06
(UTC-07:00)

ITUPSAT 1 - Pass Details

Date: 11 April 2023
Orbit: 697 x 710 km, 98.5° (Epoch: 29 May)

Event Time Altitude Azimuth Distance (km) Brightness Sun altitude
Rises 23:26:50 0° 5° (N) 3,116 ? -29.3°
Reaches altitude 10° 23:29:20 10° 354° (N) 2,191 ? -29.5°
Maximum altitude 23:33:25 29° 296° (WNW) 1,298 ? -29.8°
Enters shadow 23:35:02 23° 263° (W) 1,471 ? -30.0°
